Погода в Лапоткове

Россия / Тульская область     53°50′28″N   37°25′31″E
темп.,
°C
ветер,
м/с
пор.,
м/с
влажн.,
%
обл.,
%
осадки,
мм/ч
давл.,
гПа
погр.,
м
8 марта, пн
пн800:00−7з6138323 0.0 1000302
03:00−8зюз6138412 0.0 1000331
06:00−7зюз7159067 0.0 999543
09:00−6з9149078 0.1 1000953
12:00−5зсз8128398 0.1 10031128
15:00−5зсз588197 0.1 1005889
18:00−9зсз348920 0.0 100754
21:00−12зсз339110 0.0 100921
9 марта, вт
вт900:00−11зсз239647 0.0 101024
03:00−12с369672 0.1 1012161
06:00−14ссз369699 0.1 1014176
09:00−15ссз489588 0.1 1016266
12:00−12ссз578992 0.0 1017543
15:00−10ссз578596 0.1 1018743
18:00−13сз3490100 0.0 101970
21:00−16ссз349286 0.1 102239
10 марта, ср
ср1000:00−19ссз339312 0.0 102325
03:00−21ссз22986 0.0 102520
06:00−22сз119919 0.0 102520
09:00−18ссв129252 0.0 1027126
12:00−15всв3385100 0.1 1027295
15:00−14всв3378100 0.1 1026380
18:00−15в3589100 0.0 1026224
21:00−20в358995 0.0 102874
11 марта, чт
чт1100:00−23в33900 0.0 103023
03:00−23вюв23910 0.0 103120
06:00−24в23917 0.0 103220
09:00−21вюв238818 0.0 103392
12:00−16юв34780 0.0 1033275
15:00−14юв33760 0.0 1033360
18:00−18юв33880 0.0 103225
21:00−21ююв34900 0.0 103340
12 марта, пт
пт1200:00−21ююв47910 0.0 103398
03:00−21ююв410890 0.0 1032148
06:00−20ююв613820 0.0 1031203
09:00−16ю7138828 0.0 1029304
12:00−10ю81585100 0.0 1027458
15:00−8ю91685100 0.0 1024705
18:00−7ю101881100 0.0 1021937
21:00−6ю111990100 0.3 10201025